DAL93 EDDB-KJFK

Flight info

Callsign DAL93
Flight time N/A
Altitude 30000
Route SUKIP3Q/06R SUKIP Y206 BUREL P203 HLZ L980 TENLI L602 FLEVO L980 IDRID M40 SABER L980 LAM L179 SAWPE DCT UNFIT DCT LEDGO DCT UNLID DCT ELSOX/M083F300 DCT DINIM NATF MUSAK/N0487F300 N296B TUSKY DCT PLYMM PARCH4
Aircraft B763/H-SDE3FGHIM3RWXY/LB1

Departure

Time 2026-05-06 08:28
Airport Berlin Brandenburg Airport (EDDB)

Arrival

Time N/A
Airport John F. Kennedy International Airport (KJFK)
Time Latitude Longitude Altitude Speed Heading
2026-05-06 07:51 52.36427 13.50549 169 ft 0 kts 69°
2026-05-06 08:15 52.36426 13.50541 169 ft 2 kts 69°
2026-05-06 08:16 52.36420 13.50519 169 ft 2 kts 69°
2026-05-06 08:16 52.36415 13.50496 169 ft 2 kts 81°
2026-05-06 08:16 52.36415 13.50471 169 ft 2 kts 99°
2026-05-06 08:16 52.36420 13.50449 169 ft 2 kts 116°
2026-05-06 08:17 52.36428 13.50428 169 ft 2 kts 134°
2026-05-06 08:17 52.36440 13.50414 169 ft 2 kts 151°
2026-05-06 08:17 52.36447 13.50408 169 ft 0 kts 159°
2026-05-06 08:19 52.36446 13.50408 169 ft 0 kts 159°
2026-05-06 08:19 52.36441 13.50411 169 ft 3 kts 161°
2026-05-06 08:20 52.36400 13.50434 169 ft 8 kts 160°
2026-05-06 08:20 52.36339 13.50470 169 ft 10 kts 160°
2026-05-06 08:20 52.36269 13.50514 169 ft 11 kts 158°
2026-05-06 08:20 52.36193 13.50563 169 ft 12 kts 158°
2026-05-06 08:21 52.36113 13.50614 169 ft 12 kts 158°
2026-05-06 08:21 52.36028 13.50668 169 ft 13 kts 158°
2026-05-06 08:21 52.35936 13.50724 169 ft 14 kts 159°
2026-05-06 08:21 52.35840 13.50784 169 ft 15 kts 159°
2026-05-06 08:22 52.35740 13.50803 169 ft 14 kts 210°
2026-05-06 08:22 52.35686 13.50662 169 ft 15 kts 247°
2026-05-06 08:22 52.35648 13.50497 169 ft 16 kts 249°
2026-05-06 08:22 52.35607 13.50322 169 ft 16 kts 249°
2026-05-06 08:23 52.35562 13.50141 169 ft 17 kts 248°
2026-05-06 08:23 52.35517 13.49951 169 ft 18 kts 249°
2026-05-06 08:23 52.35471 13.49753 169 ft 18 kts 249°
2026-05-06 08:23 52.35422 13.49550 169 ft 19 kts 248°
2026-05-06 08:24 52.35372 13.49339 169 ft 20 kts 248°
2026-05-06 08:24 52.35319 13.49122 169 ft 21 kts 248°
2026-05-06 08:24 52.35264 13.48891 169 ft 22 kts 249°
2026-05-06 08:24 52.35208 13.48648 169 ft 23 kts 249°
2026-05-06 08:25 52.35148 13.48399 169 ft 23 kts 248°
2026-05-06 08:25 52.35087 13.48143 169 ft 24 kts 249°
2026-05-06 08:25 52.35024 13.47879 169 ft 25 kts 248°
2026-05-06 08:25 52.34961 13.47613 169 ft 23 kts 248°
2026-05-06 08:26 52.34904 13.47377 169 ft 21 kts 248°
2026-05-06 08:26 52.34853 13.47165 169 ft 18 kts 249°
2026-05-06 08:26 52.34810 13.46979 169 ft 16 kts 249°
2026-05-06 08:26 52.34769 13.46816 169 ft 14 kts 235°
2026-05-06 08:27 52.34694 13.46789 169 ft 10 kts 164°
2026-05-06 08:27 52.34671 13.46800 169 ft 0 kts 160°
2026-05-06 08:27 52.34654 13.46811 169 ft 9 kts 160°
2026-05-06 08:27 52.34581 13.46977 169 ft 29 kts 77°
2026-05-06 08:28 52.34703 13.47520 169 ft 80 kts 70°
2026-05-06 08:28 52.34984 13.48691 169 ft 140 kts 68°
2026-05-06 08:28 52.35403 13.50427 303 ft 181 kts 66°
2026-05-06 08:28 52.35754 13.52458 878 ft 200 kts 88°
2026-05-06 08:29 52.35367 13.54694 1472 ft 218 kts 126°
2026-05-06 08:29 52.34186 13.56156 2088 ft 220 kts 159°
2026-05-06 08:29 52.32597 13.56324 2232 ft 242 kts 196°
2026-05-06 08:29 52.31118 13.54983 2583 ft 255 kts 226°
2026-05-06 08:30 52.29897 13.52908 3438 ft 250 kts 223°
2026-05-06 08:30 52.28591 13.51010 4044 ft 256 kts 221°
2026-05-06 08:30 52.27270 13.49069 4729 ft 257 kts 233°
2026-05-06 08:30 52.26521 13.46499 5344 ft 259 kts 261°
2026-05-06 08:31 52.26419 13.43584 6033 ft 260 kts 268°
2026-05-06 08:31 52.26371 13.40631 6725 ft 262 kts 268°
2026-05-06 08:31 52.26341 13.37650 7372 ft 265 kts 268°
2026-05-06 08:31 52.26326 13.34655 8004 ft 268 kts 269°
2026-05-06 08:32 52.26372 13.31624 8651 ft 269 kts 269°
2026-05-06 08:32 52.26419 13.28563 9265 ft 272 kts 269°
2026-05-06 08:32 52.26463 13.25496 9871 ft 275 kts 269°
2026-05-06 08:32 52.26505 13.22278 10066 ft 295 kts 269°
2026-05-06 08:33 52.26547 13.18834 10117 ft 319 kts 269°
2026-05-06 08:33 52.26593 13.15054 10170 ft 344 kts 269°
2026-05-06 08:33 52.26644 13.11067 10508 ft 359 kts 269°
2026-05-06 08:33 52.26689 13.07016 11269 ft 362 kts 269°
2026-05-06 08:34 52.26738 13.02894 11894 ft 369 kts 269°
2026-05-06 08:34 52.26830 12.94452 13277 ft 377 kts 269°
2026-05-06 08:34 52.26875 12.90233 14000 ft 379 kts 269°
2026-05-06 08:35 52.26917 12.85862 14591 ft 386 kts 269°
2026-05-06 08:35 52.26960 12.81519 15311 ft 387 kts 269°
2026-05-06 08:35 52.26999 12.77095 15903 ft 392 kts 269°
2026-05-06 08:35 52.27039 12.72607 16539 ft 396 kts 269°
2026-05-06 08:36 52.27076 12.68093 17124 ft 400 kts 269°
2026-05-06 08:36 52.27114 12.63524 17742 ft 404 kts 269°
2026-05-06 08:36 52.27148 12.58971 18279 ft 409 kts 269°
2026-05-06 08:36 52.27182 12.54273 18831 ft 413 kts 269°
2026-05-06 08:37 52.27214 12.49622 19420 ft 416 kts 269°
2026-05-06 08:37 52.27246 12.44876 20005 ft 419 kts 269°
2026-05-06 08:37 52.27274 12.40151 20482 ft 425 kts 269°
2026-05-06 08:37 52.27302 12.35301 21023 ft 428 kts 270°
2026-05-06 08:38 52.27325 12.30641 21586 ft 431 kts 269°
2026-05-06 08:38 52.27350 12.25805 22076 ft 436 kts 269°
2026-05-06 08:38 52.27370 12.20915 22601 ft 439 kts 269°
2026-05-06 08:38 52.27392 12.15819 23114 ft 443 kts 269°
2026-05-06 08:39 52.27410 12.10947 23605 ft 447 kts 269°
2026-05-06 08:39 52.27425 12.05904 24119 ft 451 kts 269°
2026-05-06 08:39 52.27440 12.00692 24625 ft 455 kts 269°
2026-05-06 08:39 52.27452 11.95492 25141 ft 458 kts 269°
2026-05-06 08:40 52.27461 11.90376 25565 ft 463 kts 269°
2026-05-06 08:40 52.27469 11.85085 26067 ft 467 kts 269°
2026-05-06 08:40 52.27474 11.79802 26558 ft 470 kts 269°
2026-05-06 08:40 52.27477 11.74454 27030 ft 474 kts 269°
2026-05-06 08:41 52.27478 11.69053 27444 ft 479 kts 269°
2026-05-06 08:41 52.27475 11.63571 27874 ft 482 kts 269°
2026-05-06 08:41 52.27471 11.58107 28301 ft 486 kts 269°
2026-05-06 08:41 52.27464 11.52589 28668 ft 490 kts 269°
2026-05-06 08:42 52.27454 11.46956 29056 ft 493 kts 269°
2026-05-06 08:42 52.27441 11.41426 29545 ft 495 kts 269°
2026-05-06 08:42 52.27426 11.35781 29771 ft 495 kts 269°
2026-05-06 08:43 52.27388 11.24619 29760 ft 492 kts 268°
2026-05-06 08:43 52.27340 11.13471 29759 ft 493 kts 268°
2026-05-06 08:44 52.27280 11.02313 29752 ft 494 kts 268°
2026-05-06 08:44 52.27211 10.91120 29763 ft 496 kts 268°
2026-05-06 08:45 52.27130 10.79852 29766 ft 495 kts 268°
2026-05-06 08:45 52.27038 10.68644 29764 ft 496 kts 268°
2026-05-06 08:46 52.26936 10.57394 29761 ft 497 kts 268°
2026-05-06 08:46 52.26823 10.46171 29769 ft 497 kts 268°
2026-05-06 08:47 52.26700 10.34994 29786 ft 497 kts 268°
2026-05-06 08:47 52.26566 10.23789 29779 ft 498 kts 267°
2026-05-06 08:48 52.26421 10.12495 29770 ft 499 kts 267°
2026-05-06 08:48 52.26265 10.01250 29775 ft 499 kts 267°
2026-05-06 08:49 52.26099 9.90024 29777 ft 499 kts 267°
2026-05-06 08:49 52.25921 9.78723 29776 ft 499 kts 267°
2026-05-06 08:50 52.25733 9.67433 29774 ft 499 kts 267°
2026-05-06 08:50 52.25534 9.56158 29773 ft 498 kts 267°
2026-05-06 08:51 52.25325 9.44971 29769 ft 498 kts 267°
2026-05-06 08:51 52.25108 9.33882 29767 ft 499 kts 266°
2026-05-06 08:52 52.24877 9.22619 29773 ft 498 kts 266°
2026-05-06 08:52 52.24639 9.11490 29778 ft 497 kts 266°
2026-05-06 08:53 52.24388 9.00279 29781 ft 497 kts 266°
2026-05-06 08:53 52.24125 8.89051 29776 ft 497 kts 266°
2026-05-06 08:54 52.23854 8.77863 29806 ft 495 kts 266°
2026-05-06 08:54 52.23574 8.66762 29777 ft 497 kts 266°
2026-05-06 08:55 52.23280 8.55552 29782 ft 495 kts 266°
2026-05-06 08:55 52.22976 8.44361 29771 ft 494 kts 267°
2026-05-06 08:56 52.22664 8.33253 29774 ft 493 kts 266°
2026-05-06 08:56 52.22342 8.22137 29789 ft 493 kts 266°
2026-05-06 08:57 52.22010 8.11033 29781 ft 493 kts 266°
2026-05-06 08:57 52.21664 7.99855 29803 ft 493 kts 266°
2026-05-06 08:58 52.21312 7.88810 29803 ft 492 kts 266°
2026-05-06 08:58 52.20954 7.77900 29810 ft 493 kts 266°
2026-05-06 08:59 52.20578 7.66749 29812 ft 492 kts 266°
2026-05-06 08:59 52.20197 7.55687 29817 ft 489 kts 266°
2026-05-06 09:00 52.19800 7.44634 29810 ft 490 kts 266°
2026-05-06 09:00 52.19397 7.33574 29808 ft 496 kts 266°
2026-05-06 09:01 52.18979 7.22428 29801 ft 494 kts 266°
2026-05-06 09:01 52.18554 7.11396 29795 ft 493 kts 266°
2026-05-06 09:02 52.18118 7.00323 29807 ft 494 kts 266°
2026-05-06 09:02 52.17675 6.89316 29808 ft 495 kts 266°
2026-05-06 09:03 52.17220 6.78294 29821 ft 495 kts 266°
2026-05-06 09:03 52.16748 6.67105 29833 ft 496 kts 266°
2026-05-06 09:04 52.16271 6.56052 29834 ft 495 kts 265°
2026-05-06 09:04 52.15784 6.44929 29848 ft 495 kts 265°
2026-05-06 09:05 52.15282 6.33885 29845 ft 497 kts 264°
2026-05-06 09:05 52.14770 6.22745 29837 ft 496 kts 265°
2026-05-06 09:06 52.14243 6.11547 29844 ft 496 kts 264°
2026-05-06 09:06 52.13710 6.00373 29846 ft 497 kts 264°
2026-05-06 09:07 52.13169 5.89325 29855 ft 496 kts 264°
2026-05-06 09:07 52.12614 5.78184 29855 ft 494 kts 264°
2026-05-06 09:08 52.12058 5.67220 29850 ft 493 kts 264°
2026-05-06 09:08 52.11485 5.56148 29852 ft 493 kts 264°
2026-05-06 09:09 52.10901 5.45054 29850 ft 491 kts 264°
2026-05-06 09:09 52.10316 5.34147 29852 ft 491 kts 264°
2026-05-06 09:10 52.09717 5.23199 29860 ft 489 kts 264°
2026-05-06 09:10 52.09123 5.12446 29873 ft 487 kts 263°
2026-05-06 09:11 52.08507 5.01560 29869 ft 485 kts 264°
2026-05-06 09:11 52.07882 4.90649 29872 ft 484 kts 264°
2026-05-06 09:12 52.07254 4.79880 29858 ft 484 kts 264°
2026-05-06 09:12 52.06615 4.69070 29862 ft 484 kts 264°
2026-05-06 09:13 52.05968 4.58324 29862 ft 484 kts 263°
2026-05-06 09:13 52.05312 4.47576 29868 ft 481 kts 263°
2026-05-06 09:14 52.04640 4.36733 29865 ft 481 kts 263°
2026-05-06 09:14 52.03971 4.26104 29868 ft 479 kts 263°
2026-05-06 09:15 52.03283 4.15331 29861 ft 477 kts 263°
2026-05-06 09:15 52.02578 4.04452 29864 ft 476 kts 262°
2026-05-06 09:16 52.01876 3.93764 29868 ft 476 kts 263°
2026-05-06 09:16 52.01174 3.83236 29874 ft 477 kts 263°
2026-05-06 09:17 52.00434 3.72284 29882 ft 478 kts 263°
2026-05-06 09:17 51.99702 3.61590 29889 ft 478 kts 263°
2026-05-06 09:18 51.99440 3.50870 29912 ft 479 kts 274°
2026-05-06 09:18 51.99855 3.39981 29901 ft 481 kts 272°
2026-05-06 09:19 52.00100 3.29136 29903 ft 480 kts 270°
2026-05-06 09:19 52.00291 3.18249 29906 ft 481 kts 270°
2026-05-06 09:20 52.00459 3.07361 29903 ft 481 kts 270°
2026-05-06 09:20 52.00614 2.96396 29908 ft 482 kts 270°
2026-05-06 09:21 52.00758 2.85399 29923 ft 473 kts 270°
2026-05-06 09:21 52.00824 2.80035 29885 ft 459 kts 270°
2026-05-06 09:21 52.00886 2.74794 29918 ft 461 kts 270°
2026-05-06 09:21 52.00947 2.69392 29919 ft 474 kts 270°
2026-05-06 09:22 52.01008 2.63776 29916 ft 483 kts 270°
2026-05-06 09:22 52.01120 2.52919 29913 ft 481 kts 270°
2026-05-06 09:23 52.01223 2.41888 29917 ft 477 kts 270°
2026-05-06 09:23 52.01315 2.30949 29921 ft 478 kts 269°
2026-05-06 09:24 52.01395 2.20179 29920 ft 477 kts 269°
2026-05-06 09:24 52.01466 2.09453 29925 ft 475 kts 269°
2026-05-06 09:25 52.01526 1.98788 29925 ft 476 kts 269°
2026-05-06 09:25 52.01577 1.88025 29926 ft 477 kts 269°
2026-05-06 09:26 52.01619 1.77335 29925 ft 476 kts 269°
2026-05-06 09:26 52.01650 1.66617 29926 ft 476 kts 269°
2026-05-06 09:27 52.01672 1.55653 29927 ft 476 kts 269°
2026-05-06 09:27 52.01684 1.44880 29936 ft 475 kts 269°
2026-05-06 09:28 52.01686 1.34138 29937 ft 474 kts 268°
2026-05-06 09:28 52.01678 1.23513 29943 ft 474 kts 268°
2026-05-06 09:29 52.01661 1.12904 29943 ft 474 kts 268°
2026-05-06 09:29 52.01635 1.02246 29943 ft 475 kts 268°
2026-05-06 09:30 52.01598 0.91545 29951 ft 474 kts 268°
2026-05-06 09:30 52.01551 0.80870 29951 ft 473 kts 268°
2026-05-06 09:31 52.01496 0.70265 29949 ft 473 kts 269°
2026-05-06 09:31 52.01431 0.59680 29953 ft 471 kts 269°
2026-05-06 09:32 52.01356 0.49034 29958 ft 473 kts 269°
2026-05-06 09:32 52.01272 0.38359 29964 ft 475 kts 269°
2026-05-06 09:33 52.01178 0.27769 29972 ft 474 kts 268°
2026-05-06 09:33 52.01075 0.17121 29965 ft 473 kts 268°
2026-05-06 09:34 52.00961 0.06391 29969 ft 474 kts 269°
2026-05-06 09:34 52.00837 -0.04320 29961 ft 474 kts 269°
2026-05-06 09:35 52.00705 -0.14952 29969 ft 474 kts 269°
2026-05-06 09:35 52.00562 -0.25665 29974 ft 474 kts 269°
2026-05-06 09:36 52.00411 -0.36278 29979 ft 475 kts 269°
2026-05-06 09:36 52.00250 -0.46930 29981 ft 476 kts 269°
2026-05-06 09:37 52.00077 -0.57631 29984 ft 475 kts 269°
2026-05-06 09:37 51.99897 -0.68243 29985 ft 474 kts 268°
2026-05-06 09:38 51.99709 -0.78784 29984 ft 474 kts 268°
2026-05-06 09:38 51.99511 -0.89372 29987 ft 473 kts 268°
2026-05-06 09:39 51.99302 -1.00003 29989 ft 473 kts 268°
2026-05-06 09:39 51.99087 -1.10469 29994 ft 473 kts 268°
2026-05-06 09:40 51.98857 -1.21157 29996 ft 473 kts 268°
2026-05-06 09:40 51.98498 -1.37094 29996 ft 473 kts 268°
2026-05-06 09:41 51.98245 -1.47759 29997 ft 472 kts 268°
2026-05-06 09:41 51.97985 -1.58332 30000 ft 472 kts 268°
2026-05-06 09:42 51.97717 -1.68829 30002 ft 473 kts 267°
2026-05-06 09:42 51.97439 -1.79367 30006 ft 473 kts 267°
2026-05-06 09:43 51.97150 -1.89935 30009 ft 472 kts 268°
2026-05-06 09:43 51.96851 -2.00566 30014 ft 471 kts 268°
2026-05-06 09:44 51.96545 -2.11088 30019 ft 471 kts 268°
2026-05-06 09:44 51.96228 -2.21631 30019 ft 471 kts 268°
2026-05-06 09:45 51.95902 -2.32216 30019 ft 471 kts 268°
2026-05-06 09:45 51.95566 -2.42773 30018 ft 470 kts 268°
2026-05-06 09:46 51.95220 -2.53360 30020 ft 472 kts 268°
2026-05-06 09:46 51.94866 -2.63895 30015 ft 471 kts 268°
2026-05-06 09:47 51.94513 -2.74128 30014 ft 471 kts 267°
2026-05-06 09:47 51.94145 -2.84547 30014 ft 470 kts 266°
2026-05-06 09:48 51.93764 -2.95039 30013 ft 470 kts 266°
2026-05-06 09:48 51.93371 -3.05619 30012 ft 470 kts 266°
2026-05-06 09:49 51.92976 -3.16011 30017 ft 470 kts 266°
2026-05-06 09:49 51.92564 -3.26587 30010 ft 470 kts 267°
2026-05-06 09:50 51.92146 -3.37085 30007 ft 470 kts 266°
2026-05-06 09:50 51.91718 -3.47598 30003 ft 470 kts 267°
2026-05-06 09:51 51.91281 -3.58094 29996 ft 469 kts 266°
2026-05-06 09:51 51.90836 -3.68536 30006 ft 470 kts 266°
2026-05-06 09:52 51.90384 -3.78970 30000 ft 469 kts 266°
2026-05-06 09:52 51.89917 -3.89498 30013 ft 470 kts 266°
2026-05-06 09:53 51.89445 -3.99938 30004 ft 469 kts 266°
2026-05-06 09:53 51.88963 -4.10384 30000 ft 469 kts 266°
2026-05-06 09:54 51.88480 -4.20658 30001 ft 470 kts 266°
2026-05-06 09:54 51.87978 -4.31133 29994 ft 468 kts 266°
2026-05-06 09:55 51.87468 -4.41607 29998 ft 468 kts 266°
2026-05-06 09:55 51.86948 -4.52066 30003 ft 467 kts 266°
2026-05-06 09:56 51.86422 -4.62460 30001 ft 467 kts 266°
2026-05-06 09:56 51.85888 -4.72832 30003 ft 467 kts 265°
2026-05-06 09:57 51.85339 -4.83323 30005 ft 468 kts 265°
2026-05-06 09:57 51.84786 -4.93703 30008 ft 468 kts 265°
2026-05-06 09:58 51.84208 -5.04377 30001 ft 468 kts 265°
2026-05-06 09:58 51.83629 -5.14885 30009 ft 468 kts 265°
2026-05-06 09:59 51.83040 -5.25392 30012 ft 467 kts 265°
2026-05-06 09:59 51.82442 -5.35901 30008 ft 467 kts 265°
2026-05-06 10:00 51.81829 -5.46509 30013 ft 466 kts 265°
2026-05-06 10:00 51.81244 -5.56485 30013 ft 466 kts 265°
2026-05-06 10:01 51.80637 -5.66660 30014 ft 467 kts 264°
2026-05-06 10:01 51.80013 -5.76990 30024 ft 467 kts 264°
2026-05-06 10:02 51.79378 -5.87336 30023 ft 466 kts 264°
2026-05-06 10:02 51.78724 -5.97847 30024 ft 466 kts 264°
2026-05-06 10:03 51.78059 -6.08382 30027 ft 465 kts 264°
2026-05-06 10:03 51.77395 -6.18743 30027 ft 464 kts 264°
2026-05-06 10:04 51.76713 -6.29238 30023 ft 466 kts 264°
2026-05-06 10:04 51.76015 -6.39821 30023 ft 466 kts 264°
2026-05-06 10:05 51.75309 -6.50403 30024 ft 466 kts 264°
2026-05-06 10:05 51.74597 -6.60916 30026 ft 466 kts 264°
2026-05-06 10:06 51.73881 -6.71347 30029 ft 465 kts 264°
2026-05-06 10:06 51.73165 -6.81648 30028 ft 465 kts 264°
2026-05-06 10:07 51.72432 -6.92049 30027 ft 466 kts 264°
2026-05-06 10:07 51.71682 -7.02566 30029 ft 466 kts 264°
2026-05-06 10:08 51.70915 -7.13177 30028 ft 466 kts 264°
2026-05-06 10:08 51.70144 -7.23714 30028 ft 466 kts 264°
2026-05-06 10:09 51.69373 -7.34114 30027 ft 466 kts 264°
2026-05-06 10:09 51.68583 -7.44643 30027 ft 466 kts 264°
2026-05-06 10:10 51.67777 -7.55270 30027 ft 466 kts 264°
2026-05-06 10:10 51.66966 -7.65808 30024 ft 467 kts 263°
2026-05-06 10:11 51.66164 -7.76132 30020 ft 468 kts 263°
2026-05-06 10:11 51.65364 -7.86292 30015 ft 468 kts 263°
2026-05-06 10:12 51.64520 -7.96897 30010 ft 467 kts 263°
2026-05-06 10:12 51.63670 -8.07461 30010 ft 468 kts 263°
2026-05-06 10:13 51.62800 -8.18138 30010 ft 468 kts 263°
2026-05-06 10:13 51.61937 -8.28621 30010 ft 468 kts 264°
2026-05-06 10:14 51.61041 -8.39371 30010 ft 469 kts 264°
2026-05-06 10:14 51.60150 -8.49947 30007 ft 469 kts 264°
2026-05-06 10:15 51.59398 -8.58777 30008 ft 469 kts 264°
2026-05-06 10:15 51.58503 -8.69193 30009 ft 470 kts 263°
2026-05-06 10:16 51.57562 -8.80022 30008 ft 470 kts 263°
2026-05-06 10:16 51.56627 -8.90666 30008 ft 471 kts 263°
2026-05-06 10:17 51.55690 -9.01223 30007 ft 471 kts 263°
2026-05-06 10:17 51.54737 -9.11847 30007 ft 471 kts 263°
2026-05-06 10:18 51.53768 -9.22538 30008 ft 472 kts 263°
2026-05-06 10:18 51.52799 -9.33118 30010 ft 473 kts 263°
2026-05-06 10:19 51.51813 -9.43765 30015 ft 474 kts 263°
2026-05-06 10:19 51.50822 -9.54367 30015 ft 475 kts 263°
2026-05-06 10:20 51.49817 -9.65015 30010 ft 475 kts 262°
2026-05-06 10:20 51.48813 -9.75543 30015 ft 476 kts 262°
2026-05-06 10:21 51.47784 -9.86222 30022 ft 476 kts 262°
2026-05-06 10:21 51.46750 -9.96856 30029 ft 477 kts 262°
2026-05-06 10:22 51.45711 -10.07435 30031 ft 478 kts 262°
2026-05-06 10:22 51.44642 -10.18219 30031 ft 478 kts 262°
2026-05-06 10:23 51.43586 -10.28763 30035 ft 477 kts 262°
2026-05-06 10:23 51.42502 -10.39483 30033 ft 478 kts 262°
2026-05-06 10:24 51.41406 -10.50227 30035 ft 477 kts 262°
2026-05-06 10:24 51.40305 -10.60915 30036 ft 478 kts 262°
2026-05-06 10:25 51.39208 -10.71473 30038 ft 478 kts 261°
2026-05-06 10:25 51.38089 -10.82138 30040 ft 479 kts 261°
2026-05-06 10:26 51.36950 -10.92901 30040 ft 479 kts 261°
2026-05-06 10:26 51.35825 -11.03420 30045 ft 479 kts 262°
2026-05-06 10:27 51.34672 -11.14116 30041 ft 479 kts 262°
2026-05-06 10:27 51.33510 -11.24807 30043 ft 479 kts 261°
2026-05-06 10:28 51.32328 -11.35587 30047 ft 480 kts 261°
2026-05-06 10:28 51.31132 -11.46383 30048 ft 480 kts 261°
2026-05-06 10:29 51.29933 -11.57127 30051 ft 480 kts 262°
2026-05-06 10:29 51.28700 -11.68070 30058 ft 480 kts 261°
2026-05-06 10:30 51.27493 -11.78690 30060 ft 480 kts 261°
2026-05-06 10:30 51.26259 -11.89465 30064 ft 480 kts 261°
2026-05-06 10:31 51.25021 -12.00169 30063 ft 481 kts 261°
2026-05-06 10:31 51.23756 -12.11022 30061 ft 480 kts 261°
2026-05-06 10:32 51.22493 -12.21763 30067 ft 482 kts 261°
2026-05-06 10:32 51.21214 -12.32558 30064 ft 482 kts 261°
2026-05-06 10:33 51.19923 -12.43363 30067 ft 483 kts 261°
2026-05-06 10:33 51.18605 -12.54304 30064 ft 484 kts 261°
2026-05-06 10:34 51.17286 -12.65154 30065 ft 485 kts 260°
2026-05-06 10:34 51.15954 -12.76031 30058 ft 485 kts 260°
2026-05-06 10:35 51.14619 -12.86834 30063 ft 485 kts 260°
2026-05-06 10:35 51.13247 -12.97859 30062 ft 488 kts 260°
2026-05-06 10:36 51.11880 -13.08754 30062 ft 489 kts 260°
2026-05-06 10:36 51.10493 -13.19713 30059 ft 489 kts 260°
2026-05-06 10:37 51.09100 -13.30639 30053 ft 489 kts 260°
2026-05-06 10:37 51.07679 -13.41696 30050 ft 490 kts 260°
2026-05-06 10:38 51.06258 -13.52658 30052 ft 491 kts 261°
2026-05-06 10:38 51.04832 -13.63584 30050 ft 493 kts 260°
2026-05-06 10:39 51.03387 -13.74559 30046 ft 493 kts 259°
2026-05-06 10:39 51.01923 -13.85598 30046 ft 494 kts 260°
2026-05-06 10:40 51.00453 -13.96606 30055 ft 497 kts 259°
2026-05-06 10:40 50.99559 -14.07579 30069 ft 494 kts 274°
2026-05-06 10:41 50.99915 -14.18873 30051 ft 493 kts 274°
2026-05-06 10:41 51.00046 -14.29964 30062 ft 494 kts 273°
2026-05-06 10:42 51.00091 -14.41164 30058 ft 494 kts 273°
2026-05-06 10:42 51.00103 -14.52346 30063 ft 495 kts 273°
2026-05-06 10:43 51.00097 -14.63688 30064 ft 496 kts 273°
2026-05-06 10:44 51.00066 -14.80541 30064 ft 498 kts 272°
2026-05-06 10:44 51.00031 -14.92062 30070 ft 499 kts 273°
2026-05-06 10:45 51.00415 -15.03223 30087 ft 493 kts 284°
2026-05-06 10:45 51.01739 -15.14173 30075 ft 493 kts 284°
2026-05-06 10:46 51.03058 -15.25142 30070 ft 492 kts 285°
2026-05-06 10:46 51.04386 -15.36242 30067 ft 493 kts 285°
2026-05-06 10:47 51.05677 -15.47116 30072 ft 494 kts 285°
2026-05-06 10:47 51.06942 -15.57866 30071 ft 494 kts 285°
2026-05-06 10:48 51.08194 -15.68586 30077 ft 494 kts 284°
2026-05-06 10:48 51.09450 -15.79438 30066 ft 493 kts 284°
2026-05-06 10:49 51.10693 -15.90255 30065 ft 494 kts 284°
2026-05-06 10:49 51.11927 -16.01085 30408 ft 499 kts 284°
2026-05-06 10:49 51.12552 -16.06629 31094 ft 495 kts 284°
2026-05-06 10:50 51.13153 -16.11970 31677 ft 493 kts 284°
2026-05-06 10:50 51.13768 -16.17452 32260 ft 490 kts 284°
2026-05-06 10:50 51.14373 -16.22868 32743 ft 490 kts 284°
2026-05-06 10:50 51.14964 -16.28193 33310 ft 486 kts 284°
2026-05-06 10:51 51.15579 -16.33750 33830 ft 484 kts 284°
2026-05-06 10:51 51.16159 -16.39025 34083 ft 482 kts 284°
2026-05-06 10:51 51.16733 -16.44247 34059 ft 482 kts 284°
2026-05-06 10:52 51.17894 -16.54906 34076 ft 479 kts 284°
2026-05-06 10:52 51.19034 -16.65461 34067 ft 477 kts 283°
2026-05-06 10:53 51.20184 -16.76198 34073 ft 479 kts 283°
2026-05-06 10:53 51.21310 -16.86820 34069 ft 477 kts 284°
2026-05-06 10:54 51.22438 -16.97545 34077 ft 477 kts 283°
2026-05-06 10:54 51.23524 -17.07980 34077 ft 475 kts 283°
2026-05-06 10:55 51.24604 -17.18442 34078 ft 475 kts 283°
2026-05-06 10:55 51.25671 -17.28872 34078 ft 476 kts 283°
2026-05-06 10:56 51.26730 -17.39327 34073 ft 475 kts 283°
2026-05-06 10:56 51.27780 -17.49787 34069 ft 473 kts 283°
2026-05-06 10:57 51.28817 -17.60212 34065 ft 474 kts 283°
2026-05-06 10:57 51.29837 -17.70564 34068 ft 473 kts 282°
2026-05-06 10:58 51.30859 -17.81028 34068 ft 473 kts 282°
2026-05-06 10:58 51.31863 -17.91419 34065 ft 472 kts 282°
2026-05-06 10:59 51.32858 -18.01801 34066 ft 472 kts 282°
2026-05-06 10:59 51.33843 -18.12200 34064 ft 472 kts 282°
2026-05-06 11:00 51.34822 -18.22633 34067 ft 471 kts 282°
2026-05-06 11:00 51.35798 -18.33118 34065 ft 471 kts 282°
2026-05-06 11:01 51.36746 -18.43427 34066 ft 471 kts 282°
2026-05-06 11:01 51.37721 -18.54126 34064 ft 471 kts 281°
2026-05-06 11:02 51.38686 -18.64828 34060 ft 470 kts 281°
2026-05-06 11:02 51.39644 -18.75563 34061 ft 471 kts 281°
2026-05-06 11:03 51.40587 -18.86248 34060 ft 470 kts 280°
2026-05-06 11:03 51.41513 -18.96859 34062 ft 470 kts 280°
2026-05-06 11:04 51.42442 -19.07604 34056 ft 471 kts 280°
2026-05-06 11:04 51.43360 -19.18359 34062 ft 470 kts 280°
2026-05-06 11:05 51.44263 -19.29049 34063 ft 469 kts 280°
2026-05-06 11:05 51.45154 -19.39710 34062 ft 469 kts 280°
2026-05-06 11:06 51.46035 -19.50386 34057 ft 469 kts 279°
2026-05-06 11:06 51.46910 -19.61096 34060 ft 469 kts 279°
2026-05-06 11:07 51.47765 -19.71683 34059 ft 468 kts 278°
2026-05-06 11:07 51.48595 -19.82093 34058 ft 468 kts 278°
2026-05-06 11:08 51.49426 -19.92622 34056 ft 469 kts 278°
2026-05-06 11:08 51.50114 -20.03091 34064 ft 470 kts 275°
2026-05-06 11:09 51.50576 -20.13838 34071 ft 470 kts 275°
2026-05-06 11:09 51.51012 -20.24348 34073 ft 469 kts 275°
2026-05-06 11:10 51.51435 -20.34872 34072 ft 469 kts 275°
2026-05-06 11:10 51.51846 -20.45355 34067 ft 469 kts 275°
2026-05-06 11:11 51.52256 -20.56047 34068 ft 468 kts 275°
2026-05-06 11:11 51.52649 -20.66589 34065 ft 467 kts 274°
2026-05-06 11:12 51.53033 -20.77108 34073 ft 466 kts 274°
2026-05-06 11:12 51.53412 -20.87780 34065 ft 467 kts 274°
2026-05-06 11:13 51.53776 -20.98279 34071 ft 469 kts 274°
2026-05-06 11:13 51.54139 -21.09035 34070 ft 468 kts 274°
2026-05-06 11:14 51.54489 -21.19693 34073 ft 468 kts 273°
2026-05-06 11:14 51.54827 -21.30290 34073 ft 467 kts 273°
2026-05-06 11:15 51.55155 -21.40857 34075 ft 465 kts 273°
2026-05-06 11:15 51.55474 -21.51469 34078 ft 466 kts 273°
2026-05-06 11:16 51.55784 -21.62077 34080 ft 466 kts 273°
2026-05-06 11:16 51.56085 -21.72716 34079 ft 466 kts 272°
2026-05-06 11:17 51.56379 -21.83444 34079 ft 466 kts 272°
2026-05-06 11:17 51.56654 -21.93835 34080 ft 466 kts 272°
2026-05-06 11:18 51.56923 -22.04332 34079 ft 465 kts 272°
2026-05-06 11:18 51.57187 -22.15008 34082 ft 465 kts 272°
2026-05-06 11:19 51.57438 -22.25576 34081 ft 464 kts 272°
2026-05-06 11:19 51.57679 -22.36097 34077 ft 465 kts 272°
2026-05-06 11:20 51.57911 -22.46644 34078 ft 465 kts 272°
2026-05-06 11:20 51.58138 -22.57393 34079 ft 465 kts 272°
2026-05-06 11:21 51.58350 -22.67915 34079 ft 465 kts 271°
2026-05-06 11:21 51.58558 -22.78759 34077 ft 467 kts 271°
2026-05-06 11:22 51.58755 -22.89436 34078 ft 467 kts 270°
2026-05-06 11:22 51.58942 -23.00183 34082 ft 465 kts 270°
2026-05-06 11:23 51.59118 -23.10847 34080 ft 465 kts 270°
2026-05-06 11:23 51.59285 -23.21565 34077 ft 466 kts 270°
2026-05-06 11:24 51.59441 -23.32137 34076 ft 466 kts 270°
2026-05-06 11:24 51.59591 -23.42982 34077 ft 466 kts 270°
2026-05-06 11:25 51.59725 -23.53361 34077 ft 465 kts 270°
2026-05-06 11:25 51.59853 -23.64009 34077 ft 466 kts 270°
2026-05-06 11:26 51.59970 -23.74611 34077 ft 466 kts 269°
2026-05-06 11:26 51.60080 -23.85386 34072 ft 465 kts 269°
2026-05-06 11:27 51.60180 -23.96103 34075 ft 465 kts 269°
2026-05-06 11:27 51.60269 -24.06804 34071 ft 465 kts 269°
2026-05-06 11:28 51.60347 -24.17269 34070 ft 464 kts 269°
2026-05-06 11:28 51.60418 -24.27995 34072 ft 464 kts 269°
2026-05-06 11:29 51.60479 -24.38691 34070 ft 464 kts 268°
2026-05-06 11:29 51.60529 -24.49463 34068 ft 465 kts 268°
2026-05-06 11:30 51.60570 -24.60014 34065 ft 464 kts 268°
2026-05-06 11:30 51.60601 -24.70663 34065 ft 464 kts 268°
2026-05-06 11:31 51.60623 -24.81351 34066 ft 464 kts 268°
2026-05-06 11:31 51.60635 -24.92044 34067 ft 465 kts 268°
2026-05-06 11:32 51.60638 -25.02742 34060 ft 463 kts 268°
2026-05-06 11:32 51.60631 -25.13238 34051 ft 463 kts 268°
2026-05-06 11:33 51.60614 -25.23832 34047 ft 462 kts 268°
2026-05-06 11:33 51.60588 -25.34338 34047 ft 460 kts 268°
2026-05-06 11:34 51.60552 -25.44967 34047 ft 461 kts 268°
2026-05-06 11:34 51.60507 -25.55518 34045 ft 459 kts 268°
2026-05-06 11:35 51.60452 -25.66161 34045 ft 458 kts 267°
2026-05-06 11:35 51.60389 -25.76484 34048 ft 459 kts 267°
2026-05-06 11:36 51.60316 -25.87022 34043 ft 457 kts 267°
2026-05-06 11:36 51.60235 -25.97359 34044 ft 455 kts 267°
2026-05-06 11:37 51.60142 -26.07970 34045 ft 456 kts 266°
2026-05-06 11:37 51.60041 -26.18391 34042 ft 457 kts 267°
2026-05-06 11:38 51.59932 -26.28843 34034 ft 455 kts 266°
2026-05-06 11:38 51.59813 -26.39330 34035 ft 456 kts 266°
2026-05-06 11:39 51.59684 -26.49761 34036 ft 456 kts 266°
2026-05-06 11:39 51.59547 -26.60216 34031 ft 457 kts 266°
2026-05-06 11:40 51.59398 -26.70812 34026 ft 455 kts 266°
2026-05-06 11:40 51.59242 -26.81195 34031 ft 454 kts 266°
2026-05-06 11:41 51.59077 -26.91662 34025 ft 455 kts 266°
2026-05-06 11:41 51.58903 -27.02013 34027 ft 454 kts 266°
2026-05-06 11:42 51.58717 -27.12561 34011 ft 458 kts 266°
2026-05-06 11:42 51.58526 -27.22919 34010 ft 455 kts 266°
2026-05-06 11:43 51.58320 -27.33512 33992 ft 457 kts 265°
2026-05-06 11:43 51.58107 -27.44002 34001 ft 456 kts 265°
2026-05-06 11:44 51.57772 -27.59626 33984 ft 456 kts 266°
2026-05-06 11:44 51.57535 -27.70132 33991 ft 458 kts 265°
2026-05-06 11:45 51.57291 -27.80563 33996 ft 457 kts 265°
2026-05-06 11:45 51.57040 -27.90922 33974 ft 456 kts 265°
2026-05-06 11:46 51.56778 -28.01323 33968 ft 456 kts 265°
2026-05-06 11:46 51.56505 -28.11775 33977 ft 456 kts 265°
2026-05-06 11:47 51.56225 -28.22177 33973 ft 458 kts 265°
2026-05-06 11:47 51.55938 -28.32485 33978 ft 457 kts 265°
2026-05-06 11:48 51.55644 -28.42720 33971 ft 457 kts 265°
2026-05-06 11:48 51.55340 -28.52965 33972 ft 457 kts 265°
2026-05-06 11:49 51.55028 -28.63206 33968 ft 458 kts 265°
2026-05-06 11:49 51.54699 -28.73714 33974 ft 458 kts 264°
2026-05-06 11:50 51.54370 -28.83921 33970 ft 458 kts 264°
2026-05-06 11:50 51.54028 -28.94220 33982 ft 459 kts 264°
2026-05-06 11:51 51.53679 -29.04482 33954 ft 459 kts 264°
2026-05-06 11:51 51.53316 -29.14899 33974 ft 458 kts 264°
2026-05-06 11:52 51.52950 -29.25115 33977 ft 459 kts 264°
2026-05-06 11:52 51.52570 -29.35483 33966 ft 459 kts 264°
2026-05-06 11:53 51.52183 -29.45799 33964 ft 460 kts 264°
2026-05-06 11:53 51.51779 -29.56330 33968 ft 459 kts 264°
2026-05-06 11:54 51.51367 -29.66804 33981 ft 459 kts 264°
2026-05-06 11:54 51.50949 -29.77184 33979 ft 459 kts 264°
2026-05-06 11:55 51.50525 -29.87497 34004 ft 458 kts 264°
2026-05-06 11:55 51.50082 -29.98054 33991 ft 458 kts 264°
2026-05-06 11:56 51.49929 -30.08482 33993 ft 459 kts 267°
2026-05-06 11:56 51.49849 -30.18817 33984 ft 460 kts 267°
2026-05-06 11:57 51.49757 -30.29094 33985 ft 458 kts 267°
2026-05-06 11:57 51.49653 -30.39458 34007 ft 459 kts 267°
2026-05-06 11:58 51.49541 -30.49856 34032 ft 458 kts 267°
2026-05-06 11:58 51.49418 -30.60261 34027 ft 457 kts 268°
2026-05-06 11:59 51.49289 -30.70449 34028 ft 456 kts 266°
2026-05-06 11:59 51.49149 -30.80824 34033 ft 457 kts 266°
2026-05-06 12:00 51.49001 -30.91102 34032 ft 456 kts 266°
2026-05-06 12:00 51.48842 -31.01498 34024 ft 457 kts 267°
2026-05-06 12:01 51.48674 -31.11901 34034 ft 457 kts 267°
2026-05-06 12:01 51.48495 -31.22348 34037 ft 457 kts 267°
2026-05-06 12:02 51.48308 -31.32775 34041 ft 456 kts 267°
2026-05-06 12:02 51.48116 -31.43019 34037 ft 456 kts 267°
2026-05-06 12:03 51.47916 -31.53163 34049 ft 455 kts 267°
2026-05-06 12:03 51.47702 -31.63543 34048 ft 455 kts 267°
2026-05-06 12:04 51.47480 -31.73927 34055 ft 455 kts 266°
2026-05-06 12:04 51.47248 -31.84266 34059 ft 455 kts 266°
2026-05-06 12:05 51.47003 -31.94827 34058 ft 455 kts 266°
2026-05-06 12:05 51.46754 -32.05168 34063 ft 455 kts 266°
2026-05-06 12:06 51.46494 -32.15544 34058 ft 455 kts 266°
2026-05-06 12:06 51.46225 -32.25938 34055 ft 454 kts 266°
2026-05-06 12:07 51.45940 -32.36578 34050 ft 456 kts 267°
2026-05-06 12:07 51.45655 -32.46878 34054 ft 456 kts 267°
2026-05-06 12:08 51.45357 -32.57296 34055 ft 455 kts 267°
2026-05-06 12:08 51.45053 -32.67632 34057 ft 454 kts 266°
2026-05-06 12:09 51.44735 -32.78094 34063 ft 455 kts 266°
2026-05-06 12:09 51.44415 -32.88365 34066 ft 456 kts 266°
2026-05-06 12:10 51.44080 -32.98812 34067 ft 456 kts 266°
2026-05-06 12:10 51.43738 -33.09159 34068 ft 456 kts 266°
2026-05-06 12:11 51.43379 -33.19731 34073 ft 455 kts 267°
2026-05-06 12:11 51.43017 -33.30136 34070 ft 454 kts 267°
2026-05-06 12:12 51.42645 -33.40570 34071 ft 453 kts 267°
2026-05-06 12:12 51.42271 -33.50812 34072 ft 453 kts 267°
2026-05-06 12:13 51.41874 -33.61410 34075 ft 454 kts 267°
2026-05-06 12:13 51.41475 -33.71787 34078 ft 453 kts 266°
2026-05-06 12:14 51.41069 -33.82132 34083 ft 454 kts 266°
2026-05-06 12:14 51.40655 -33.92451 34083 ft 454 kts 266°
2026-05-06 12:15 51.40223 -34.02970 34078 ft 452 kts 266°
2026-05-06 12:15 51.39791 -34.13289 34085 ft 452 kts 266°
2026-05-06 12:16 51.39351 -34.23550 34091 ft 452 kts 266°
2026-05-06 12:16 51.38902 -34.33834 34087 ft 452 kts 267°
2026-05-06 12:17 51.38439 -34.44214 34089 ft 452 kts 267°
2026-05-06 12:17 51.37970 -34.54528 34083 ft 451 kts 267°
2026-05-06 12:18 51.37498 -34.64710 34088 ft 452 kts 267°
2026-05-06 12:18 51.37013 -34.74971 34089 ft 452 kts 266°
2026-05-06 12:19 51.36522 -34.85187 34095 ft 451 kts 266°
2026-05-06 12:19 51.36021 -34.95402 34087 ft 451 kts 266°
2026-05-06 12:20 51.35515 -35.05568 34091 ft 452 kts 266°
2026-05-06 12:20 51.34992 -35.15855 34091 ft 451 kts 266°
2026-05-06 12:21 51.34473 -35.25912 34089 ft 449 kts 267°
2026-05-06 12:21 51.33941 -35.36044 34091 ft 450 kts 267°
2026-05-06 12:22 51.33396 -35.46256 34090 ft 451 kts 267°
2026-05-06 12:22 51.32838 -35.56543 34089 ft 450 kts 267°
2026-05-06 12:23 51.32278 -35.66697 34091 ft 450 kts 266°
2026-05-06 12:23 51.31710 -35.76833 34098 ft 451 kts 266°
2026-05-06 12:24 51.31130 -35.87023 34104 ft 450 kts 266°
2026-05-06 12:24 51.30542 -35.97186 34104 ft 449 kts 266°
2026-05-06 12:25 51.29951 -36.07259 34106 ft 449 kts 266°
2026-05-06 12:25 51.29338 -36.17566 34101 ft 449 kts 266°
2026-05-06 12:26 51.28728 -36.27648 34102 ft 449 kts 267°
2026-05-06 12:26 51.28107 -36.37779 34106 ft 447 kts 267°
2026-05-06 12:27 51.27484 -36.47804 34101 ft 448 kts 267°
2026-05-06 12:27 51.26832 -36.58128 34104 ft 448 kts 267°
2026-05-06 12:28 51.26194 -36.68114 34102 ft 447 kts 266°
2026-05-06 12:28 51.25539 -36.78216 34105 ft 448 kts 266°
2026-05-06 12:29 51.24878 -36.88275 34105 ft 448 kts 266°
2026-05-06 12:29 51.24197 -36.98507 34104 ft 447 kts 266°
2026-05-06 12:30 51.23513 -37.08633 34103 ft 448 kts 267°
2026-05-06 12:30 51.22824 -37.18724 34101 ft 447 kts 266°
2026-05-06 12:31 51.22130 -37.28746 34105 ft 447 kts 267°
2026-05-06 12:31 51.21415 -37.38936 34102 ft 444 kts 267°
2026-05-06 12:32 51.20710 -37.48866 34109 ft 444 kts 267°
2026-05-06 12:32 51.19992 -37.58851 34106 ft 445 kts 267°
2026-05-06 12:33 51.19268 -37.68814 34118 ft 444 kts 266°
2026-05-06 12:33 51.18530 -37.78849 34123 ft 446 kts 266°
2026-05-06 12:34 51.17792 -37.88747 34117 ft 446 kts 266°
2026-05-06 12:34 51.17037 -37.98764 34111 ft 446 kts 267°
2026-05-06 12:35 51.16285 -38.08626 34117 ft 446 kts 267°
2026-05-06 12:35 51.15515 -38.18611 34118 ft 444 kts 267°
2026-05-06 12:36 51.14740 -38.28559 34118 ft 444 kts 267°
2026-05-06 12:36 51.13944 -38.38646 34116 ft 442 kts 267°
2026-05-06 12:37 51.13150 -38.48605 34123 ft 442 kts 267°
2026-05-06 12:37 51.12355 -38.58458 34121 ft 442 kts 268°
2026-05-06 12:38 51.11543 -38.68424 34131 ft 443 kts 267°
2026-05-06 12:38 51.10719 -38.78439 34129 ft 443 kts 267°
2026-05-06 12:39 51.09893 -38.88343 34130 ft 442 kts 267°
2026-05-06 12:39 51.09070 -38.98140 34113 ft 441 kts 267°
2026-05-06 12:40 51.08220 -39.08132 34110 ft 440 kts 267°
2026-05-06 12:40 51.07380 -39.17919 34127 ft 439 kts 268°
2026-05-06 12:41 51.06524 -39.27787 34133 ft 438 kts 268°
2026-05-06 12:41 51.05663 -39.37609 34149 ft 438 kts 268°
2026-05-06 12:42 51.04776 -39.47624 34132 ft 438 kts 268°
2026-05-06 12:42 51.03908 -39.57348 34148 ft 438 kts 268°
2026-05-06 12:43 51.03022 -39.67164 34145 ft 436 kts 268°
2026-05-06 12:43 51.02142 -39.76823 34161 ft 437 kts 268°
2026-05-06 12:44 51.01243 -39.86590 34140 ft 432 kts 268°
2026-05-06 12:44 51.00352 -39.96122 34156 ft 433 kts 266°
2026-05-06 12:45 50.98781 -40.05597 34138 ft 440 kts 262°
2026-05-06 12:46 50.96074 -40.19812 34128 ft 440 kts 261°
2026-05-06 12:46 50.94215 -40.29260 34155 ft 439 kts 261°
2026-05-06 12:47 50.92338 -40.38709 34119 ft 442 kts 261°
2026-05-06 12:47 50.90454 -40.48125 34116 ft 439 kts 261°
2026-05-06 12:48 50.88568 -40.57503 34144 ft 440 kts 262°
2026-05-06 12:48 50.86678 -40.66848 34136 ft 440 kts 261°
2026-05-06 12:49 50.84786 -40.76166 34123 ft 443 kts 262°
2026-05-06 12:49 50.82896 -40.85423 34133 ft 441 kts 262°
2026-05-06 12:50 50.80966 -40.94839 34145 ft 442 kts 262°
2026-05-06 12:50 50.79075 -41.04017 34149 ft 440 kts 262°
2026-05-06 12:51 50.77168 -41.13228 34133 ft 436 kts 262°
2026-05-06 12:51 50.75272 -41.22365 34143 ft 441 kts 262°
2026-05-06 12:52 50.73357 -41.31526 34133 ft 441 kts 262°
2026-05-06 12:52 50.71425 -41.40733 34138 ft 440 kts 262°
2026-05-06 12:53 50.69487 -41.49924 34128 ft 440 kts 262°
2026-05-06 12:53 50.67553 -41.59057 34129 ft 437 kts 262°
2026-05-06 12:54 50.65579 -41.68344 34147 ft 439 kts 261°
2026-05-06 12:54 50.63619 -41.77519 34151 ft 440 kts 262°
2026-05-06 12:55 50.61621 -41.86818 34139 ft 438 kts 262°
2026-05-06 12:55 50.59639 -41.96020 34146 ft 439 kts 261°
2026-05-06 12:56 50.57623 -42.05322 34160 ft 437 kts 261°
2026-05-06 12:56 50.55653 -42.14376 34147 ft 436 kts 261°
2026-05-06 12:57 50.53648 -42.23561 34159 ft 439 kts 261°
2026-05-06 12:57 50.51638 -42.32709 34157 ft 435 kts 261°
2026-05-06 12:58 50.49610 -42.41910 34161 ft 438 kts 261°
2026-05-06 12:58 50.47566 -42.51145 34155 ft 437 kts 261°
2026-05-06 12:59 50.45508 -42.60389 34161 ft 437 kts 261°
2026-05-06 12:59 50.43478 -42.69484 34165 ft 439 kts 260°
2026-05-06 13:00 50.41429 -42.78611 34167 ft 438 kts 260°
2026-05-06 13:00 50.39384 -42.87689 34170 ft 439 kts 260°
2026-05-06 13:01 50.37315 -42.96828 34171 ft 439 kts 260°
2026-05-06 13:01 50.35265 -43.05850 34175 ft 442 kts 259°
2026-05-06 13:02 50.33186 -43.14955 34171 ft 441 kts 259°
2026-05-06 13:02 50.31103 -43.24034 34170 ft 440 kts 260°
2026-05-06 13:03 50.29029 -43.33049 34172 ft 442 kts 260°
2026-05-06 13:03 50.26937 -43.42093 34173 ft 440 kts 259°
2026-05-06 13:04 50.24856 -43.51054 34170 ft 439 kts 259°
2026-05-06 13:04 50.22758 -43.60054 34170 ft 441 kts 259°
2026-05-06 13:05 50.20654 -43.69040 34180 ft 443 kts 259°
2026-05-06 13:05 50.18505 -43.78176 34181 ft 442 kts 258°
2026-05-06 13:06 50.16371 -43.87211 34176 ft 442 kts 258°
2026-05-06 13:06 50.14244 -43.96184 34174 ft 441 kts 259°
2026-05-06 13:07 50.12086 -44.05251 34172 ft 440 kts 258°
2026-05-06 13:07 50.09892 -44.14426 34172 ft 442 kts 258°
2026-05-06 13:08 50.07737 -44.23403 34169 ft 445 kts 259°
2026-05-06 13:08 50.05560 -44.32435 34172 ft 448 kts 258°
2026-05-06 13:09 50.03397 -44.41363 34168 ft 443 kts 258°
2026-05-06 13:09 50.01218 -44.50327 34163 ft 443 kts 258°
2026-05-06 13:10 49.99031 -44.59294 34163 ft 448 kts 258°
2026-05-06 13:10 49.96817 -44.68324 34168 ft 446 kts 257°
2026-05-06 13:11 49.94587 -44.77386 34166 ft 445 kts 257°
2026-05-06 13:11 49.92383 -44.86312 34168 ft 446 kts 257°
2026-05-06 13:12 49.90135 -44.95369 34172 ft 445 kts 257°
2026-05-06 13:12 49.87884 -45.04414 34156 ft 448 kts 257°
2026-05-06 13:13 49.85625 -45.13441 34154 ft 447 kts 257°
2026-05-06 13:13 49.83351 -45.22497 34157 ft 445 kts 257°
2026-05-06 13:14 49.81104 -45.31419 34153 ft 447 kts 257°
2026-05-06 13:14 49.78809 -45.40482 34147 ft 447 kts 257°
2026-05-06 13:15 49.76484 -45.49631 34155 ft 450 kts 257°
2026-05-06 13:15 49.74175 -45.58677 34154 ft 445 kts 257°
2026-05-06 13:16 49.71887 -45.67610 34163 ft 446 kts 256°
2026-05-06 13:16 49.69572 -45.76612 34166 ft 449 kts 256°
2026-05-06 13:17 49.67240 -45.85642 34165 ft 449 kts 256°
2026-05-06 13:17 49.64906 -45.94641 34158 ft 446 kts 256°
2026-05-06 13:18 49.62616 -46.03445 34167 ft 448 kts 255°
2026-05-06 13:18 49.60284 -46.12371 34158 ft 448 kts 255°
2026-05-06 13:19 49.57943 -46.21297 34159 ft 449 kts 255°
2026-05-06 13:19 49.55617 -46.30132 34158 ft 449 kts 255°
2026-05-06 13:20 49.53253 -46.39072 34156 ft 448 kts 255°
2026-05-06 13:20 49.50923 -46.47852 34157 ft 448 kts 255°
2026-05-06 13:21 49.48569 -46.56691 34159 ft 448 kts 255°
2026-05-06 13:21 49.46207 -46.65526 34147 ft 447 kts 253°
2026-05-06 13:22 49.43817 -46.74432 34158 ft 449 kts 253°
2026-05-06 13:22 49.41422 -46.83321 34159 ft 449 kts 253°
2026-05-06 13:23 49.39044 -46.92111 34160 ft 447 kts 253°
2026-05-06 13:23 49.36623 -47.01032 34157 ft 448 kts 253°
2026-05-06 13:24 49.34233 -47.09802 34156 ft 447 kts 253°
2026-05-06 13:24 49.31828 -47.18592 34163 ft 448 kts 253°
2026-05-06 13:25 49.29405 -47.27419 34164 ft 447 kts 253°
2026-05-06 13:25 49.27001 -47.36144 34159 ft 448 kts 252°
2026-05-06 13:26 49.24552 -47.44994 34173 ft 449 kts 252°
2026-05-06 13:26 49.22129 -47.53721 34169 ft 448 kts 252°
2026-05-06 13:27 49.19667 -47.62554 34168 ft 448 kts 252°
2026-05-06 13:27 49.17234 -47.71253 34179 ft 449 kts 251°
2026-05-06 13:28 49.14759 -47.80069 34170 ft 449 kts 251°
2026-05-06 13:28 49.12283 -47.88857 34170 ft 448 kts 251°
2026-05-06 13:29 49.09780 -47.97705 34169 ft 449 kts 251°
2026-05-06 13:29 49.07252 -48.06613 34159 ft 451 kts 251°
2026-05-06 13:30 49.04743 -48.15417 34156 ft 450 kts 251°
2026-05-06 13:30 49.02239 -48.24172 34148 ft 450 kts 251°
2026-05-06 13:31 48.99707 -48.32992 34164 ft 450 kts 251°
2026-05-06 13:31 48.97188 -48.41737 34146 ft 451 kts 251°
2026-05-06 13:32 48.94645 -48.50532 34146 ft 450 kts 251°
2026-05-06 13:32 48.92109 -48.59270 34152 ft 450 kts 251°
2026-05-06 13:33 48.89561 -48.68020 34159 ft 450 kts 250°
2026-05-06 13:33 48.86982 -48.76839 34150 ft 450 kts 250°
2026-05-06 13:34 48.84428 -48.85547 34155 ft 450 kts 250°
2026-05-06 13:34 48.81831 -48.94368 34151 ft 451 kts 250°
2026-05-06 13:35 48.79234 -49.03158 34148 ft 451 kts 250°
2026-05-06 13:35 48.76602 -49.12031 34153 ft 449 kts 250°
2026-05-06 13:36 48.73991 -49.20804 34153 ft 448 kts 250°
2026-05-06 13:36 48.71350 -49.29647 34155 ft 448 kts 250°
2026-05-06 13:37 48.68711 -49.38450 34151 ft 448 kts 250°
2026-05-06 13:37 48.66037 -49.47337 34155 ft 447 kts 250°
2026-05-06 13:38 48.63382 -49.56130 34151 ft 447 kts 250°
2026-05-06 13:38 48.60727 -49.64888 34147 ft 447 kts 250°
2026-05-06 13:39 48.58033 -49.73752 34160 ft 448 kts 249°
2026-05-06 13:39 48.55360 -49.82508 34158 ft 446 kts 249°
2026-05-06 13:40 48.52689 -49.91228 34161 ft 446 kts 249°
2026-05-06 13:40 48.49990 -50.00025 34157 ft 445 kts 249°
2026-05-06 13:41 48.47788 -50.09060 34159 ft 444 kts 253°
2026-05-06 13:41 48.45649 -50.18059 34177 ft 444 kts 253°
2026-05-06 13:42 48.43486 -50.27054 34167 ft 443 kts 253°
2026-05-06 13:42 48.41314 -50.36021 34162 ft 443 kts 253°
2026-05-06 13:43 48.39114 -50.45068 34171 ft 443 kts 253°
2026-05-06 13:43 48.36930 -50.54003 34171 ft 443 kts 252°
2026-05-06 13:44 48.34729 -50.62972 34157 ft 443 kts 252°
2026-05-06 13:44 48.32599 -50.71624 34175 ft 443 kts 251°
2026-05-06 13:45 48.30452 -50.80303 34168 ft 443 kts 251°
2026-05-06 13:45 48.27149 -50.93593 34174 ft 443 kts 251°
2026-05-06 13:46 48.24896 -51.02616 34175 ft 444 kts 251°
2026-05-06 13:46 48.22682 -51.11445 34171 ft 444 kts 251°
2026-05-06 13:47 48.20445 -51.20330 34174 ft 442 kts 251°
2026-05-06 13:47 48.18218 -51.29142 34169 ft 443 kts 251°
2026-05-06 13:48 48.15944 -51.38105 34154 ft 442 kts 251°
2026-05-06 13:48 48.13701 -51.46909 34159 ft 442 kts 251°
2026-05-06 13:49 48.11467 -51.55651 34162 ft 443 kts 251°
2026-05-06 13:49 48.09228 -51.64370 34164 ft 441 kts 251°
2026-05-06 13:50 48.07012 -51.72971 34157 ft 442 kts 250°
2026-05-06 13:50 48.04796 -51.81541 34152 ft 441 kts 250°
2026-05-06 13:51 48.02583 -51.90064 34147 ft 441 kts 250°
2026-05-06 13:51 48.00363 -51.98586 34149 ft 441 kts 250°
2026-05-06 13:52 47.98464 -52.07213 34163 ft 438 kts 253°
2026-05-06 13:52 47.96635 -52.15889 34165 ft 438 kts 253°
2026-05-06 13:53 47.94803 -52.24520 34146 ft 439 kts 253°
2026-05-06 13:53 47.92953 -52.33189 34160 ft 440 kts 253°
2026-05-06 13:54 47.91095 -52.41855 34159 ft 439 kts 253°
2026-05-06 13:54 47.89225 -52.50545 34158 ft 439 kts 253°
2026-05-06 13:55 47.87360 -52.59176 34166 ft 440 kts 252°
2026-05-06 13:55 47.85483 -52.67822 34169 ft 439 kts 252°
2026-05-06 13:56 47.83598 -52.76467 34173 ft 439 kts 252°
2026-05-06 13:56 47.81712 -52.85082 34167 ft 439 kts 252°
2026-05-06 13:57 47.79809 -52.93741 34168 ft 438 kts 252°
2026-05-06 13:57 47.77917 -53.02314 34176 ft 438 kts 252°
2026-05-06 13:58 47.75998 -53.10973 34183 ft 441 kts 251°
2026-05-06 13:58 47.74077 -53.19606 34176 ft 441 kts 251°
2026-05-06 13:59 47.72152 -53.28220 34174 ft 442 kts 251°
2026-05-06 13:59 47.70208 -53.36884 34169 ft 443 kts 251°
2026-05-06 14:00 47.68255 -53.45552 34167 ft 442 kts 251°
2026-05-06 14:00 47.66297 -53.54208 34180 ft 445 kts 251°
2026-05-06 14:01 47.64327 -53.62879 34188 ft 444 kts 251°
2026-05-06 14:01 47.62344 -53.71576 34192 ft 444 kts 250°
2026-05-06 14:02 47.60372 -53.80185 34191 ft 444 kts 250°
2026-05-06 14:02 47.58374 -53.88878 34187 ft 445 kts 250°
2026-05-06 14:03 47.56367 -53.97572 34187 ft 446 kts 250°
2026-05-06 14:03 47.54359 -54.06238 34188 ft 447 kts 250°
2026-05-06 14:04 47.52328 -54.14962 34184 ft 447 kts 250°
2026-05-06 14:04 47.50312 -54.23594 34185 ft 447 kts 250°
2026-05-06 14:05 47.48269 -54.32301 34187 ft 449 kts 250°
2026-05-06 14:05 47.46219 -54.41007 34193 ft 449 kts 250°
2026-05-06 14:06 47.44157 -54.49725 34186 ft 448 kts 250°
2026-05-06 14:06 47.42088 -54.58439 34192 ft 450 kts 250°
2026-05-06 14:07 47.40025 -54.67097 34190 ft 450 kts 249°
2026-05-06 14:07 47.37946 -54.75785 34199 ft 450 kts 249°
2026-05-06 14:08 47.35848 -54.84520 34198 ft 450 kts 249°
2026-05-06 14:08 47.33753 -54.93205 34189 ft 451 kts 249°
2026-05-06 14:09 47.31650 -55.01889 34201 ft 451 kts 249°
2026-05-06 14:09 47.29526 -55.10625 34191 ft 451 kts 249°
2026-05-06 14:10 47.27410 -55.19295 34197 ft 451 kts 249°
2026-05-06 14:10 47.25271 -55.28028 34186 ft 453 kts 249°
2026-05-06 14:11 47.23138 -55.36699 34196 ft 454 kts 250°
2026-05-06 14:11 47.20979 -55.45444 34186 ft 453 kts 250°
2026-05-06 14:12 47.18819 -55.54160 34202 ft 455 kts 250°
2026-05-06 14:12 47.16637 -55.62928 34196 ft 455 kts 250°
2026-05-06 14:13 47.14473 -55.71594 34192 ft 455 kts 249°
2026-05-06 14:13 47.12283 -55.80324 34202 ft 457 kts 249°
2026-05-06 14:14 47.10068 -55.89126 34190 ft 456 kts 249°
2026-05-06 14:14 47.07853 -55.97889 34185 ft 457 kts 249°
2026-05-06 14:15 47.05709 -56.06341 34190 ft 459 kts 249°
2026-05-06 14:15 47.03476 -56.15114 34180 ft 457 kts 249°
2026-05-06 14:16 47.01338 -56.23479 34190 ft 458 kts 249°
2026-05-06 14:16 46.99091 -56.32238 34189 ft 458 kts 249°
2026-05-06 14:17 46.96851 -56.40940 34188 ft 457 kts 249°
2026-05-06 14:17 46.94587 -56.49696 34182 ft 457 kts 249°
2026-05-06 14:18 46.92334 -56.58382 34183 ft 457 kts 249°
2026-05-06 14:18 46.90086 -56.67012 34186 ft 456 kts 249°
2026-05-06 14:19 46.87817 -56.75690 34187 ft 456 kts 249°
2026-05-06 14:19 46.85518 -56.84454 34182 ft 457 kts 249°
2026-05-06 14:20 46.83201 -56.93253 34182 ft 456 kts 249°
2026-05-06 14:20 46.80884 -57.02018 34185 ft 456 kts 249°
2026-05-06 14:21 46.78582 -57.10694 34170 ft 455 kts 249°
2026-05-06 14:21 46.76358 -57.19044 34171 ft 456 kts 249°
2026-05-06 14:22 46.74027 -57.27764 34172 ft 455 kts 249°
2026-05-06 14:22 46.71677 -57.36523 34165 ft 455 kts 249°
2026-05-06 14:23 46.69327 -57.45251 34159 ft 454 kts 249°
2026-05-06 14:23 46.66989 -57.53902 34154 ft 454 kts 249°
2026-05-06 14:24 46.64628 -57.62609 34159 ft 454 kts 249°
2026-05-06 14:24 46.62384 -57.70851 34157 ft 454 kts 248°
2026-05-06 14:25 46.60015 -57.79521 34163 ft 455 kts 248°
2026-05-06 14:25 46.57664 -57.88095 34147 ft 454 kts 248°
2026-05-06 14:26 46.55284 -57.96743 34142 ft 454 kts 248°
2026-05-06 14:26 46.53009 -58.04981 34148 ft 453 kts 248°
2026-05-06 14:27 46.50633 -58.13556 34141 ft 453 kts 248°
2026-05-06 14:27 46.48220 -58.22233 34162 ft 453 kts 248°
2026-05-06 14:28 46.45850 -58.30724 34167 ft 452 kts 249°
2026-05-06 14:28 46.43496 -58.39130 34159 ft 452 kts 249°
2026-05-06 14:29 46.41096 -58.47669 34138 ft 453 kts 249°
2026-05-06 14:29 46.38713 -58.56117 34153 ft 453 kts 248°
2026-05-06 14:30 46.36292 -58.64671 34141 ft 452 kts 249°
2026-05-06 14:30 46.33911 -58.73054 34162 ft 453 kts 248°
2026-05-06 14:31 46.31507 -58.81488 34159 ft 452 kts 248°
2026-05-06 14:31 46.29086 -58.89953 34160 ft 451 kts 248°
2026-05-06 14:32 46.26642 -58.98471 34159 ft 452 kts 248°
2026-05-06 14:32 46.24207 -59.06922 34134 ft 452 kts 248°
2026-05-06 14:33 46.21749 -59.15429 34134 ft 452 kts 248°
2026-05-06 14:33 46.19299 -59.23877 34143 ft 449 kts 248°
2026-05-06 14:34 46.16862 -59.32252 34142 ft 449 kts 248°
2026-05-06 14:34 46.14419 -59.40619 34136 ft 449 kts 248°
2026-05-06 14:35 46.11958 -59.49021 34151 ft 447 kts 248°
2026-05-06 14:35 46.09517 -59.57323 34138 ft 450 kts 248°
2026-05-06 14:36 46.07070 -59.65619 34129 ft 448 kts 248°
2026-05-06 14:36 46.04625 -59.73884 34121 ft 447 kts 248°
2026-05-06 14:37 46.02181 -59.82116 34127 ft 448 kts 248°
2026-05-06 14:37 45.99736 -59.90322 34109 ft 448 kts 248°
2026-05-06 14:38 45.97282 -59.98536 34121 ft 447 kts 248°
2026-05-06 14:38 45.94812 -60.06771 34095 ft 447 kts 248°
2026-05-06 14:39 45.92355 -60.14938 34114 ft 446 kts 248°
2026-05-06 14:39 45.89869 -60.23180 34106 ft 447 kts 248°
2026-05-06 14:40 45.87415 -60.31280 34110 ft 444 kts 248°
2026-05-06 14:40 45.84927 -60.39473 34114 ft 447 kts 248°
2026-05-06 14:41 45.82438 -60.47642 34118 ft 446 kts 248°
2026-05-06 14:41 45.79947 -60.55786 34114 ft 447 kts 248°
2026-05-06 14:42 45.77443 -60.63952 34108 ft 445 kts 248°
2026-05-06 14:42 45.74933 -60.72107 34099 ft 445 kts 248°
2026-05-06 14:43 45.72459 -60.80122 34101 ft 445 kts 248°
2026-05-06 14:43 45.69930 -60.88290 34106 ft 445 kts 248°
2026-05-06 14:44 45.67433 -60.96326 34118 ft 445 kts 248°
2026-05-06 14:45 45.63655 -61.08438 34105 ft 442 kts 248°
2026-05-06 14:45 45.61146 -61.16453 34104 ft 442 kts 248°
2026-05-06 14:46 45.58625 -61.24477 34112 ft 443 kts 248°
2026-05-06 14:46 45.56094 -61.32513 34094 ft 444 kts 248°
2026-05-06 14:47 45.53572 -61.40490 34100 ft 443 kts 248°
2026-05-06 14:47 45.51022 -61.48535 34102 ft 442 kts 248°
2026-05-06 14:48 45.48492 -61.56488 34088 ft 442 kts 248°
2026-05-06 14:48 45.45953 -61.64446 34081 ft 442 kts 248°
2026-05-06 14:49 45.43397 -61.72434 34097 ft 442 kts 247°
2026-05-06 14:49 45.40842 -61.80394 34095 ft 442 kts 247°
2026-05-06 14:50 45.38287 -61.88332 34088 ft 442 kts 247°
2026-05-06 14:50 45.35735 -61.96234 34100 ft 441 kts 247°
2026-05-06 14:51 45.33161 -62.04177 34085 ft 442 kts 248°
2026-05-06 14:51 45.30596 -62.12073 34087 ft 441 kts 248°
2026-05-06 14:52 45.28014 -62.19994 34081 ft 442 kts 248°
2026-05-06 14:52 45.25434 -62.27889 34089 ft 443 kts 248°
2026-05-06 14:53 45.22832 -62.35824 34097 ft 446 kts 247°
2026-05-06 14:53 45.20231 -62.43732 34088 ft 446 kts 247°
2026-05-06 14:54 45.17624 -62.51634 34084 ft 446 kts 248°
2026-05-06 14:54 45.15023 -62.59497 34095 ft 444 kts 248°
2026-05-06 14:55 45.12401 -62.67397 34089 ft 447 kts 247°
2026-05-06 14:55 45.09753 -62.75351 34103 ft 449 kts 247°
2026-05-06 14:56 45.07169 -62.83092 34102 ft 450 kts 247°
2026-05-06 14:56 45.04485 -62.91111 34086 ft 451 kts 247°
2026-05-06 14:57 45.01804 -62.99089 34088 ft 451 kts 247°
2026-05-06 14:57 44.99120 -63.07062 34088 ft 451 kts 247°
2026-05-06 14:58 44.96402 -63.15103 34084 ft 450 kts 247°
2026-05-06 14:58 44.93731 -63.22985 34083 ft 448 kts 247°
2026-05-06 14:59 44.91035 -63.30914 34076 ft 446 kts 248°
2026-05-06 14:59 44.88375 -63.38716 34080 ft 444 kts 248°
2026-05-06 15:00 44.85690 -63.46573 34084 ft 445 kts 248°
2026-05-06 15:00 44.83011 -63.54385 34080 ft 444 kts 248°
2026-05-06 15:01 44.80353 -63.62112 34075 ft 441 kts 248°
2026-05-06 15:01 44.77696 -63.69820 34081 ft 443 kts 248°
2026-05-06 15:02 44.74999 -63.77613 34066 ft 442 kts 248°
2026-05-06 15:02 44.72337 -63.85290 34076 ft 440 kts 248°
2026-05-06 15:03 44.69651 -63.93010 34083 ft 440 kts 248°
2026-05-06 15:03 44.66973 -64.00685 34052 ft 438 kts 248°
2026-05-06 15:04 44.64291 -64.08353 34067 ft 438 kts 248°
2026-05-06 15:04 44.61615 -64.15985 34062 ft 440 kts 248°
2026-05-06 15:05 44.58917 -64.23650 34063 ft 439 kts 248°
2026-05-06 15:05 44.56226 -64.31276 34071 ft 439 kts 248°
2026-05-06 15:06 44.53520 -64.38924 34058 ft 440 kts 248°
2026-05-06 15:06 44.50829 -64.46508 34054 ft 438 kts 248°
2026-05-06 15:07 44.48126 -64.54105 34057 ft 437 kts 248°
2026-05-06 15:07 44.45410 -64.61716 34054 ft 439 kts 248°
2026-05-06 15:08 44.42710 -64.69263 34049 ft 437 kts 246°
2026-05-06 15:08 44.39986 -64.76856 34059 ft 437 kts 246°
2026-05-06 15:09 44.37366 -64.84139 34070 ft 439 kts 246°
2026-05-06 15:09 44.34600 -64.91806 34049 ft 438 kts 246°
2026-05-06 15:10 44.31896 -64.99278 34049 ft 435 kts 246°
2026-05-06 15:10 44.29166 -65.06807 34041 ft 436 kts 246°
2026-05-06 15:11 44.26403 -65.14404 34059 ft 438 kts 246°
2026-05-06 15:11 44.23665 -65.21909 34051 ft 437 kts 246°
2026-05-06 15:12 44.20901 -65.29465 34056 ft 435 kts 246°
2026-05-06 15:12 44.18109 -65.37080 34042 ft 436 kts 246°
2026-05-06 15:13 44.15334 -65.44626 34049 ft 436 kts 246°
2026-05-06 15:13 44.12571 -65.52116 34037 ft 435 kts 246°
2026-05-06 15:14 44.09812 -65.59576 34020 ft 433 kts 246°
2026-05-06 15:14 44.07048 -65.67033 34038 ft 434 kts 245°
2026-05-06 15:15 44.04305 -65.74413 34037 ft 433 kts 245°
2026-05-06 15:15 44.01537 -65.81838 34030 ft 433 kts 245°
2026-05-06 15:16 43.98759 -65.89271 34025 ft 431 kts 245°
2026-05-06 15:16 43.95948 -65.96774 34021 ft 430 kts 245°
2026-05-06 15:17 43.93132 -66.04266 34022 ft 431 kts 245°
2026-05-06 15:17 43.90315 -66.11745 34026 ft 430 kts 245°
2026-05-06 15:18 43.87446 -66.19340 34027 ft 432 kts 245°
2026-05-06 15:18 43.84605 -66.26839 34031 ft 431 kts 245°
2026-05-06 15:19 43.81742 -66.34376 34032 ft 430 kts 245°
2026-05-06 15:19 43.78869 -66.41921 34019 ft 431 kts 244°
2026-05-06 15:20 43.76007 -66.49416 34024 ft 432 kts 245°
2026-05-06 15:20 43.73132 -66.56927 34010 ft 432 kts 244°
2026-05-06 15:21 43.70256 -66.64417 34009 ft 431 kts 244°
2026-05-06 15:21 43.67376 -66.71899 34015 ft 432 kts 244°
2026-05-06 15:22 43.64564 -66.79184 34017 ft 433 kts 243°
2026-05-06 15:22 43.61725 -66.86520 34015 ft 432 kts 244°
2026-05-06 15:23 43.58808 -66.94039 34015 ft 431 kts 243°
2026-05-06 15:23 43.55838 -67.01489 34015 ft 433 kts 242°
2026-05-06 15:24 43.52802 -67.08777 34009 ft 431 kts 242°
2026-05-06 15:24 43.49734 -67.16094 34016 ft 432 kts 242°
2026-05-06 15:25 43.46651 -67.23416 34017 ft 431 kts 242°
2026-05-06 15:25 43.43560 -67.30737 33996 ft 430 kts 242°
2026-05-06 15:26 43.40516 -67.37927 34003 ft 431 kts 242°
2026-05-06 15:26 43.37432 -67.45191 33980 ft 432 kts 242°
2026-05-06 15:27 43.34344 -67.52450 33991 ft 431 kts 242°
2026-05-06 15:27 43.31269 -67.59656 33981 ft 431 kts 242°
2026-05-06 15:28 43.28184 -67.66873 34007 ft 431 kts 241°